Regional Weather Roundup
Issued by NWS Charleston, SC

Current Version | Previous Version | Graphics & Text | Print | Product List | Glossary On
Versions: 1 2 3 4 5 6 7 8 9 10 11 12 13 14 15 16 17 18 19 20 21 22 23 24 25 26 27 28 29 30 31 32 33 34 35 36 37 38 39 40 41 42 43 44 45 46 47 48 49 50
000
ASUS42 KCHS 290612
RWRCHS

REGIONAL WEATHER ROUNDUP
NATIONAL WEATHER SERVICE CHARLESTON SC
200 AM EDT SAT AUG 29 2015

NOTE: "FAIR" INDICATES FEW OR NO CLOUDS BELOW 12,000 FEET WITH NO
SIGNIFICANT WEATHER AND/OR OBSTRUCTIONS TO VISIBILITY.

NOT ALL STATIONS ARE QUALITY CONTROLLED BY THE NATIONAL
WEATHER SERVICE. USE DATA WITH CAUTION...ESPECIALLY
DEWPOINT OBSERVATIONS.

SCZ027-030-031-034>040-042>050-290700-
...SOUTHEAST SOUTH CAROLINA...

CITY           SKY/WX    TMP DP  RH WIND       PRES   REMARKS
N CHARLESTON   FAIR      73  69  87 NE5       30.13F
6HR MIN TEMP:  73; 6HR MAX TEMP:  79;

WATERFRONT PRK   N/A     77  72  84 NE7       30.10F
MOUNT PLEASANT FAIR      73  72  94 CALM      30.13F
JOHNS ISLAND   FAIR      75  72  88 CALM      30.13S
PINOPOLIS        N/A     79  68  69 E8        30.08R
MONCKS CORNER  FAIR      70  66  88 CALM      30.14F
SUMMERVILLE    FAIR      72  72 100 CALM      30.15F
BEAUFORT MCAS  FAIR      75  72  90 NE7       30.13S
6HR MIN TEMP:  74; 6HR MAX TEMP:  79; 6HR PCP:  0.01;

BEAUFORT ARPT  FAIR      75  73  94 N5        30.12S
HILTON HEAD IS MOCLDY    75  75 100 NW5       30.13S
WALTERBORO     FAIR      73  70  88 NE5       30.14F
ALLENDALE      FAIR      73  70  88 CALM      30.14F

...SOUTHERN MIDLANDS AND PEE DEE...

CITY           SKY/WX    TMP DP  RH WIND       PRES   REMARKS
GEORGETOWN     NOT AVBL
KINGSTREE      NOT AVBL
ORANGEBURG     FAIR      67  62  84 CALM      30.16F
6HR MIN TEMP:  67; 6HR MAX TEMP:  80;

BARNWELL       FAIR      68  66  94 CALM      30.16F
AIKEN          FAIR      64  59  82 CALM      30.20F
MANNING        FAIR      64  63  94 CALM      30.16S
COLUMBIA       FAIR      71  62  73 CALM      30.16F
6HR MIN TEMP:  67; 6HR MAX TEMP:  81;

SUMTER         FAIR      64  60  86 NE3       30.15F
6HR MIN TEMP:  64; 6HR MAX TEMP:  78;

FLORENCE       FAIR      68  63  84 N3        30.17S
6HR MIN TEMP:  68; 6HR MAX TEMP:  77;

MYRTLE BEACH   FAIR      72  64  78 NE8       30.16F
N MYRTLE BEACH FAIR      70  67  90 NE6       30.14F
6HR MIN TEMP:  70; 6HR MAX TEMP:  76;


$$

GAZ063-065-086>088-099>101-113>116-118-119-134>141-150-290700-
...SOUTHEAST GEORGIA...

CITY           SKY/WX    TMP DP  RH WIND       PRES   REMARKS
SAVANNAH ARPT  FAIR      75  72  90 NE7       30.12
6HR MIN TEMP:  74; 6HR MAX TEMP:  76;

HUNTER AAF     FAIR      76  76 100 N5        30.09F
6HR MIN TEMP:  75; 6HR MAX TEMP:  78; 6HR PCP: TRACE;

FORT STEWART   FAIR      74  72  92 N3        30.09F
6HR MIN TEMP:  74; 6HR MAX TEMP:  76;

STATESBORO     FAIR      73  73 100 CALM      30.13F
SYLVANIA       FAIR      74  73  98 E5        30.15F
CLAXTON        NOT AVBL

...CSRA...CENTRAL AND FAR SOUTHEAST GEORGIA...

CITY           SKY/WX    TMP DP  RH WIND       PRES   REMARKS
THOMSON        FAIR      70  70  99 CALM      30.21S
AUGUSTA-BUSH   FAIR      68  67  96 CALM      30.15S
6HR MIN TEMP:  68; 6HR MAX TEMP:  75;

AUGUSTA-DANIEL FAIR      75  65  70 CALM      30.17F
SWAINSBORO     FAIR     N/A N/A N/A E3        30.15F
VIDALIA        MOCLDY    73  70  88 NE5       30.13F
EASTMAN        FAIR      75  75 100 NE3       30.15F
HAZLEHURST     FAIR      76  76  99 NE5       30.11F
ALMA           FAIR      74  72  93 NE5       30.11S
6HR MIN TEMP:  73; 6HR MAX TEMP:  78;

WAYCROSS       LGT RAIN  78  78  99 CALM      30.10F
JESUP          FAIR      77  75  94 NE3       30.11S
BAXLEY         FAIR      77  73  88 NE6       30.11F
BRUNSWICK      MOCLDY    72  72 100 CALM      30.10S
SAINT SIMONS   FAIR      81  73  76 E6        30.08F
6HR MIN TEMP:  81; 6HR MAX TEMP:  82;


$$

SCZ027-028-034-036>038-045-046-048>050-GAZ119-141-290700-
...LAKE AND SUPPLEMENTAL COASTAL OBSERVATIONS...

STATION/POSITION TIME  TEMP    WIND        PRES    WAVE   SWELL
                       AIR SEA DIR/SP/G            HT/PER HT/PER/DIR
                 (UTC) (F)     (DEG/KT/KT) (MB)    (FT/S) (FT/S/D)
UPR LAKE MARION  NOT AVBL
WINYAH BAY       NOT AVBL
LAKE MURRAY      0500   76     100/  4/  6 1021.3S
ACE BASIN NERRS  NOT AVBL
FORT PULASKI     NOT AVBL
SAPELO ISLAND    0500   80      80/  5     1019.0S

$$

ANZ835-935-AMZ111-154-330-350-352-354-370-450-454-472-290700-
...C-MAN AND BUOY OBSERVATIONS...

STATION/POSITION TIME  TEMP    WIND        PRES    WAVE   SWELL
                       AIR SEA DIR/SP/G            HT/PER HT/PER/DIR
                 (UTC) (F)     (DEG/KT/KT) (MB)    (FT/S) (FT/S/D)
BUOY 41004       0550   81 84   40/ 17/ 21 1019.0F   6/ 6
BUOY 41008       0550   83 85  110/  8/ 10 1019.2F   3/ 5   3/ 50/ 5
FOLLY BEACH CMAN 0500   79      10/ 10/ 12 1020.5F
CAPERS NEARSHORE 0508   81      70/ 14/ 19 1020.5F
FRIPP NEARSHORE  0500   82      70/ 14/ 17 1019.5F


STATION/POSITION TIME  TEMP    WIND        PRES    WAVE   SWELL
                       AIR SEA DIR/SP/G            HT/PER HT/PER/DIR
                 (UTC) (F)     (DEG/KT/KT) (MB)    (FT/S) (FT/S/D)
5E ST. MARYS GA  0521      86                N/A     3/12   2/120/12
FRYING PAN BUOY  0550   80 81   50/ 17/ 19 1020.2F   6/ 6   2/110/11
BUOY 41025       0550   76 82   30/ 16/ 17 1020.4F   5/11   3/100/11
CAPE LOOKOUT NC  0500   77      40/ 16/ 19 1020.7S
BUOY 41002       0550   82 84  200/ 10/ 14 1019.5F   4/11   3/ 90/11
BUOY 41010       0520   83 85  140/ 10/ 12 1019.0F
ST AUGUSTINE FL  0600   82 85  130/  9/ 10 1018.8F


$$


USA.gov is the U.S. government's official web portal to all federal, state and local government web resources and services.